Home > Weather > St. Pölten > Past weeks

Flag for Austria Past Weather in St. Pölten, Lower Austria, Austria — Yesterday and Last 2 Weeks

Now
70 °F

Broken clouds.


Feels Like: 70 °F
Forecast: 55 / 61 °F
Wind: 13 mph from Southwest

Location: Tulln Airport

Current Time: May 31, 2016 at 6:07:07 PM

Latest Report: May 31, 2016 at 4:50 PM


Visibility: 25 mi

Pressure: 29.86 "Hg

Humidity: 60%

Dew Point: 55 °F

Location of St. PöltenLocation

Past Weather in St. Pölten — Graph

°F

St. Pölten Temperature Yesterday

Maximum temperature yesterday: 73 °F (at 1:50 PM)
Minimum temperature yesterday: 63 °F (at 5:50 AM)
Average temperature yesterday: 70 °F

High & Low Weather Summary for the Past Weeks

 TemperatureHumidityPressure
High82 °F (May 28, 3:50 PM)100% (May 24, 6:50 AM)30.15 "Hg (May 24, 6:50 AM)
Low45 °F (May 16, 8:50 PM)34% (May 21, 4:50 PM)29.62 "Hg (May 29, 5:50 PM)
Average65 °F66%29.91 "Hg
* Reported May 16 4:50 PM — May 31 4:50 PM, St. Pölten, Weather by CustomWeather, © 2016

Note: Actual official high and low records may vary slightly from our data, if they occured in-between our weather recording intervals... More about our weather records

Advertising

St. Pölten Weather History for the Previous 24 Hours

Scroll right to see more
 ConditionsComfort  
Time TempWeatherWind HumidityBarometerVisibility
4:50 PM
Tue, May 31
70 °FBroken clouds.13 mph60%29.86 "Hg25 mi
3:50 PM66 °FPartly sunny.9 mph78%29.86 "Hg19 mi
3:20 PM66 °FLight rain. Partly sunny.8 mph73%29.86 "Hg19 mi
2:50 PM66 °FBroken clouds.13 mph73%29.86 "Hg19 mi
1:50 PM70 °FPartly sunny.13 mph60%29.83 "Hg25 mi
12:50 PM75 °FScattered clouds.16 mph50%29.83 "Hg31 mi
11:50 AM73 °FScattered clouds.17 mph53%29.83 "Hg31 mi
10:50 AM70 °FScattered clouds.16 mph60%29.83 "Hg31 mi
10:20 AM66 °FScattered clouds.13 mph73%29.83 "Hg31 mi
9:50 AM68 °FSprinkles. Scattered clouds.15 mph69%29.83 "Hg31 mi
8:50 AM66 °FScattered clouds.16 mph73%29.83 "Hg31 mi
8:20 AM64 °FScattered clouds.16 mph73%29.83 "Hg40 mi
7:50 AM64 °FScattered clouds.13 mph73%29.83 "Hg40 mi
6:50 AM63 °FScattered clouds.12 mph77%29.80 "Hg43 mi
5:50 AM61 °FPassing clouds.12 mph83%29.80 "Hg43 mi
9:50 PM
Mon, May 30
66 °FPassing clouds.1 mph68%29.74 "Hg25 mi
8:50 PM66 °FPartly sunny.2 mph68%29.74 "Hg50 mi
7:50 PM70 °FPartly sunny.6 mph60%29.74 "Hg37 mi
6:50 PM72 °FScattered clouds.8 mph57%29.74 "Hg31 mi
Weather by CustomWeather, © 2016

See weather overviewHow to use our weather pages